Zurück zum Katalog

STARLINK-2338

AktivKommunikationVLEO
NORAD 47793·PAYLOAD·🇺🇸 United States

Gestartet Mar 11, 2021 von Cape Canaveral Space Force Station

Loading…

Nächste Überflüge (nächste 24 Stunden)

TLE

AktuellSource: CelesTrak SupGP

Epoche: Sep 14, 2026, 13:14 UTC

1 47793C 21018G   26257.55187500  .00003248  00000+0  10443-3 0  2573
2 47793  53.1582  80.2212 0001370  95.0021 277.3858 15.31704769    13

Verfolge STARLINK-2338 in Echtzeit mit AllMySat

Download on the App Store